Temp
45 37 33 39 43 45 45 42 42 48 54 47 48 46 50 55 52 50 51 54 56 55 57 55 51 49 48 49 50 51 51 50 48 44 42 42 42 43 44 45 47 47 46 47
39 33 42 46 47 45 43 39 38 47 51 47 45 44 51 54 56 53 52 54 53 53 52 49 46 46 45 46 48 50 51 49 48 45 44 44 43 44 44 44 44 46 45 45
34 38 46 43 42 41 40 37 37 39 45 44 40 37 42 48 54 56 55 56 55 55 52 46 45 43 43 44 46 49 48 48 47 47 45 44 42 41 40 41 41 43 44 44
36 44 43 39 38 42 34 43 41 39 36 29 39 28 42 49 49 53 56 54 56 56 55 48 46 43 42 42 45 47 47 46 47 46 42 40 37 36 39 41 40 41 43 42
35 39 38 36 40 43 36 43 39 38 35 31 32 27 37 47 47 51 53 56 55 56 52 48 45 43 43 43 43 43 44 44 44 42 42 40 40 40 41 40 39 39 40 40
35 46 41 41 45 45 44 38 33 33 31 24 32 29 35 41 45 49 53 56 56 52 49 48 46 44 42 42 42 42 41 41 42 40 40 39 39 39 36 36 35 35 36 37
33 33 39 41 35 34 34 30 23 20 21 21 33 29 35 43 50 52 52 50 49 47 47 45 42 42 41 39 39 40 39 38 39 38 37 37 37 37 36 36 35 35 34 34
25 23 33 37 36 32 31 32 25 19 19 21 32 25 32 41 44 38 34 36 42 45 45 43 41 41 40 38 37 38 37 36 37 37 36 36 36 34 34 35 34 33 30 30
26 26 36 37 40 39 30 27 36 28 22 23 23 30 39 39 32 31 31 39 40 42 42 40 40 39 37 37 36 36 36 36 36 35 34 34 33 34 31 34 33 32 33 33
30 24 35 34 37 34 34 37 26 28 20 19 22 23 30 30 30 29 30 35 38 39 39 38 37 36 36 35 34 34 33 29 29 32 33 33 32 30 27 26 27 26 27 26
32 30 28 32 30 29 28 30 30 30 29 23 21 22 33 32 29 29 30 35 37 37 35 34 33 30 27 26 27 26 26 23 24 27 27 28 28 27 23 23 22 21 21 22
33 29 25 24 30 31 31 33 33 26 25 27 24 24 21 23 22 28 32 34 37 35 33 32 29 26 25 24 24 21 19 19 20 21 23 25 26 24 20 20 20 20 20 23
32 28 21 22 27 28 27 31 32 33 30 26 24 25 20 21 24 28 30 31 33 32 31 29 28 27 27 25 22 21 18 17 18 19 19 20 21 22 19 19 20 21 22 22
33 29 25 21 24 25 24 28 30 30 26 27 27 27 22 19 19 25 30 30 29 30 29 28 27 26 25 24 23 22 20 18 17 17 17 17 17 19 20 20 20 21 20 20
31 24 26 23 22 26 24 26 29 27 30 27 22 20 24 23 20 21 27 29 28 27 27 27 26 25 24 22 20 18 18 16 16 14 14 14 15 16 16 16 16 17 18 19
32 25 24 21 24 24 22 26 29 30 29 29 29 27 24 19 21 22 27 28 27 27 26 26 26 24 22 21 20 21 20 16 15 12 11 12 14 15 15 15 15 16 16 16
29 27 23 21 22 23 15 18 26 29 30 29 26 30 27 26 25 21 25 28 28 28 27 25 26 24 23 23 25 21 20 19 16 15 17 18 18 18 17 19 20 17 15 16
26 26 27 18 17 12 18 18 18 24 28 29 29 32 32 32 30 31 28 29 28 28 27 26 26 25 24 23 22 25 25 23 20 18 20 21 20 19 20 20 18 18 21 26
29 28 23 17 14 20 22 17 18 20 22 24 21 25 29 28 29 29 30 30 33 28 27 26 25 23 22 20 22 23 21 22 22 19 19 19 20 19 20 19 18 18 20 21
28 28 25 17 11 12 17 20 26 23 19 21 20 19 24 26 25 27 25 27 25 24 23 21 21 21 20 19 23 24 22 22 21 21 21 21 21 19 18 19 20 21 22 25
22 24 21 17 20 19 22 26 28 19 16 17 20 19 21 23 22 23 24 22 22 22 20 21 21 20 18 20 21 21 20 19 21 21 21 21 21 19 20 21 21 20 20 22
20 18 19 20 19 14 24 27 22 20 21 18 18 18 19 20 24 22 21 20 20 20 21 22 21 21 21 23 23 22 21 20 19 18 17 16 14 18 20 13 16 16 16 19
19 22 20 22 21 25 25 23 22 19 20 22 24 21 23 23 23 22 21 21 22 22 22 24 22 21 20 20 20 19 17 17 14 10 9 10 12 16 17 12 14 14 19 21
24 27 23 24 26 24 25 26 25 24 25 28 28 26 26 25 24 23 23 23 23 23 21 20 19 17 16 17 19 17 17 14 6 7 10 12 11 13 13 18 18 14 13 18
22 25 23 24 26 27 27 28 27 28 25 27 27 26 26 26 24 23 23 22 22 21 20 18 17 17 16 16 15 12 13 9 10 10 12 12 14 11 12 16 14 16 16 17
24 20 19 20 24 24 27 28 27 26 26 27 27 26 26 26 25 24 22 22 20 18 17 16 15 14 13 11 11 8 7 6 4 10 13 12 11 10 12 11 12 22 25 25
MSLP
1009.70 1009.71 1008.75 1007.94 1008.16 1008.33 1008.14 1007.32 1006.43 1005.63 1005.25 1005.31 1004.95 1004.75 1004.80 1004.65 1004.58 1004.62 1004.59 1005.00 1005.25 1006.02 1006.94 1008.00 1009.27 1010.39 1010.86 1011.01 1011.41 1011.96 1012.45 1013.13 1013.91 1014.80 1015.57 1016.10 1016.34 1016.72 1017.17 1017.49 1017.75 1018.11 1018.42 1018.66
1009.02 1008.25 1006.86 1007.27 1007.66 1007.84 1007.90 1007.66 1006.42 1006.32 1005.61 1005.66 1005.41 1004.51 1004.45 1004.25 1003.79 1004.05 1004.24 1004.51 1004.82 1005.52 1006.75 1008.26 1009.07 1010.26 1010.92 1011.08 1011.25 1011.74 1012.20 1012.83 1013.65 1014.48 1015.15 1015.75 1016.18 1016.46 1016.79 1017.27 1017.79 1018.03 1018.32 1018.65
1007.62 1006.59 1007.01 1007.59 1007.42 1007.49 1006.99 1007.23 1007.09 1006.81 1006.63 1006.40 1006.35 1004.57 1004.36 1003.78 1003.56 1003.26 1003.24 1003.32 1003.87 1004.80 1006.12 1007.82 1009.02 1010.02 1010.62 1010.81 1010.93 1011.31 1011.89 1012.76 1013.61 1014.30 1014.94 1015.35 1016.02 1016.49 1016.93 1017.33 1017.71 1017.95 1018.17 1018.53
1006.96 1006.45 1006.51 1006.72 1006.62 1006.64 1006.28 1006.69 1007.33 1007.19 1007.88 1007.53 1007.41 1004.33 1003.81 1002.58 1002.41 1002.10 1001.88 1002.40 1002.76 1003.70 1004.94 1006.76 1008.25 1009.59 1010.29 1010.65 1010.93 1011.23 1011.93 1012.73 1013.54 1014.03 1014.73 1015.44 1015.87 1016.65 1016.78 1016.95 1017.39 1017.80 1018.02 1018.39
1005.23 1005.26 1005.61 1005.67 1005.47 1006.01 1005.86 1006.91 1007.55 1007.84 1007.89 1008.31 1007.55 1006.60 1000.79 1002.36 1001.36 1000.51 1001.02 1001.51 1002.11 1002.91 1004.16 1005.86 1007.37 1008.91 1009.95 1010.48 1010.97 1011.39 1011.96 1012.80 1013.40 1014.03 1014.55 1015.44 1015.84 1016.03 1016.27 1016.70 1017.20 1017.76 1018.04 1018.25
1006.08 1005.19 1005.54 1004.92 1005.07 1005.87 1006.48 1007.13 1008.05 1008.17 1008.19 1007.14 1006.07 1006.18 999.69 1001.88 1000.28 1000.44 1000.30 1000.31 1001.19 1002.52 1003.69 1005.24 1006.75 1008.30 1009.74 1010.59 1011.11 1011.64 1012.30 1013.06 1013.70 1014.28 1014.73 1015.17 1015.52 1016.04 1016.47 1016.91 1017.39 1017.75 1017.97 1018.23
1005.76 1005.33 1005.65 1005.93 1006.00 1006.69 1006.96 1007.79 1007.77 1007.96 1007.31 1005.36 1004.62 1005.58 1001.75 1000.04 1000.01 1000.39 1000.54 1000.44 1001.09 1002.33 1003.59 1005.27 1006.83 1008.04 1009.25 1010.56 1011.14 1011.87 1012.56 1013.28 1013.78 1014.31 1014.91 1015.20 1015.49 1016.02 1016.55 1016.85 1017.18 1017.63 1018.02 1018.17
1005.10 1004.77 1004.55 1004.95 1005.03 1005.62 1006.08 1005.82 1005.67 1005.44 1005.57 1004.93 1004.30 1003.65 1001.25 1000.46 1000.36 1000.43 1001.29 1001.40 1001.91 1002.85 1004.12 1005.50 1006.97 1008.35 1009.37 1010.23 1011.22 1011.94 1012.82 1013.56 1013.85 1014.26 1014.85 1015.33 1015.60 1016.07 1016.44 1016.69 1016.98 1017.44 1017.78 1018.07
1004.11 1003.44 1003.26 1003.68 1003.97 1004.82 1006.15 1005.39 1004.73 1004.92 1005.22 1004.53 1003.35 1002.78 1001.47 1000.43 1001.33 1001.60 1002.26 1002.21 1002.96 1003.63 1004.95 1006.06 1007.44 1008.55 1009.69 1010.42 1011.34 1012.13 1012.92 1013.52 1013.90 1014.32 1014.80 1015.31 1015.64 1016.07 1016.43 1016.68 1016.97 1017.40 1017.85 1018.16
1003.28 1003.22 1002.77 1003.37 1004.40 1004.70 1004.28 1004.80 1005.31 1004.83 1004.33 1003.66 1002.87 1002.82 1001.85 1000.91 1001.82 1002.04 1002.74 1003.28 1003.93 1004.58 1005.80 1006.82 1008.20 1009.32 1010.15 1010.75 1011.37 1012.39 1013.08 1013.75 1014.29 1014.35 1014.79 1015.28 1015.80 1016.10 1016.55 1016.83 1017.24 1017.57 1018.03 1018.37
1003.77 1003.45 1002.73 1003.33 1003.70 1003.43 1004.38 1004.17 1004.10 1004.02 1003.29 1002.83 1002.42 1002.07 1001.30 1001.92 1002.27 1002.26 1002.86 1003.72 1004.27 1004.81 1006.35 1007.69 1008.98 1010.22 1011.04 1011.70 1012.16 1013.07 1013.78 1014.22 1014.80 1015.05 1015.13 1015.53 1016.01 1016.17 1016.70 1017.08 1017.56 1017.77 1017.98 1018.36
1003.99 1003.93 1003.19 1003.39 1003.56 1003.73 1003.48 1002.98 1002.80 1002.24 1002.36 1002.46 1002.35 1002.29 1002.84 1003.28 1003.13 1002.99 1003.59 1003.98 1004.57 1005.63 1006.78 1008.28 1009.80 1010.98 1011.81 1012.51 1013.14 1013.89 1014.45 1014.84 1015.34 1015.60 1015.72 1016.04 1016.27 1016.46 1016.86 1017.29 1017.61 1017.62 1017.89 1017.95
1003.88 1003.69 1003.48 1003.75 1004.05 1003.87 1003.54 1002.93 1002.39 1001.52 1001.48 1001.92 1002.57 1003.11 1003.25 1003.87 1004.29 1004.15 1004.38 1004.75 1005.39 1006.41 1007.51 1008.99 1010.23 1011.47 1012.37 1012.84 1013.61 1014.13 1014.72 1015.25 1015.64 1015.85 1016.30 1016.50 1016.48 1016.53 1017.04 1017.36 1017.31 1017.41 1017.73 1017.72
1004.23 1003.51 1003.70 1003.76 1003.50 1003.33 1003.50 1002.83 1002.49 1001.94 1001.40 1001.47 1001.94 1002.97 1003.34 1004.58 1005.26 1005.47 1005.26 1005.64 1006.27 1007.45 1008.12 1009.09 1010.51 1011.44 1012.44 1012.93 1013.59 1014.28 1014.82 1015.40 1015.86 1016.20 1016.47 1016.62 1016.56 1016.61 1017.01 1016.99 1016.97 1017.24 1017.40 1017.54
1004.49 1003.76 1003.56 1003.49 1003.73 1003.86 1003.59 1003.09 1002.54 1002.10 1001.60 1001.78 1002.01 1002.93 1004.08 1005.68 1005.70 1005.78 1005.96 1006.33 1007.10 1008.01 1008.77 1009.55 1010.33 1011.34 1012.30 1013.11 1013.82 1014.46 1014.98 1015.35 1015.79 1016.20 1016.33 1016.36 1016.25 1016.53 1016.87 1016.80 1016.86 1017.00 1017.16 1017.21
1004.27 1003.77 1003.77 1003.87 1003.98 1004.21 1004.15 1003.71 1003.11 1002.41 1002.21 1002.32 1002.73 1003.61 1004.41 1005.50 1005.33 1006.09 1006.31 1006.37 1007.08 1008.13 1009.09 1009.85 1010.57 1011.45 1012.22 1012.95 1013.80 1014.48 1015.05 1015.41 1015.71 1015.94 1016.03 1016.21 1016.28 1016.62 1016.69 1016.62 1016.71 1016.84 1016.91 1016.97
1004.43 1003.93 1004.18 1004.18 1004.55 1004.89 1005.10 1004.35 1003.69 1002.93 1002.69 1002.93 1003.27 1003.49 1004.20 1004.94 1005.45 1006.27 1006.46 1006.97 1007.21 1007.97 1009.02 1010.01 1010.79 1011.72 1012.36 1012.98 1013.72 1014.53 1014.94 1015.13 1015.32 1015.59 1015.64 1015.93 1016.38 1016.70 1016.55 1016.37 1016.38 1016.51 1016.53 1016.78
1004.50 1004.15 1004.07 1004.42 1005.04 1005.22 1005.15 1005.26 1004.83 1004.23 1004.08 1004.21 1004.28 1004.37 1004.68 1005.01 1005.36 1005.67 1006.21 1006.62 1007.31 1008.10 1008.87 1009.91 1010.86 1011.77 1012.95 1013.58 1013.78 1013.94 1014.31 1014.52 1014.82 1015.26 1015.74 1016.00 1016.23 1016.38 1016.25 1016.13 1016.09 1016.13 1015.92 1015.98
1004.74 1004.35 1004.12 1004.50 1004.80 1004.68 1005.14 1005.64 1005.99 1005.46 1006.11 1006.16 1006.34 1005.94 1005.65 1005.71 1005.95 1006.21 1006.47 1006.86 1007.10 1008.12 1009.20 1010.01 1011.05 1012.24 1013.00 1013.54 1013.81 1013.89 1014.10 1014.46 1014.90 1015.42 1015.74 1016.02 1016.05 1016.09 1016.03 1015.92 1015.99 1015.82 1015.73 1015.62
1004.71 1004.42 1004.41 1004.73 1004.97 1005.43 1006.26 1006.40 1006.73 1006.54 1007.34 1007.51 1007.48 1006.96 1006.75 1006.58 1006.72 1007.17 1007.47 1007.95 1008.20 1008.91 1009.79 1010.78 1011.70 1012.48 1012.98 1013.46 1013.38 1013.69 1014.22 1014.55 1015.11 1015.49 1015.60 1015.67 1015.70 1015.80 1016.02 1015.98 1015.88 1015.58 1015.36 1015.26
1005.17 1004.79 1004.63 1004.73 1005.04 1006.27 1006.87 1006.83 1006.92 1007.59 1008.89 1008.08 1008.03 1008.05 1007.81 1007.66 1007.86 1007.98 1008.40 1009.16 1009.81 1010.23 1010.69 1011.57 1012.36 1012.75 1013.04 1013.23 1013.58 1014.16 1014.61 1014.95 1015.35 1015.42 1015.42 1015.50 1015.65 1015.73 1015.72 1015.70 1015.92 1015.89 1015.49 1015.20
1006.22 1005.90 1005.61 1005.38 1005.41 1007.04 1007.29 1006.87 1007.70 1008.89 1008.58 1008.93 1008.42 1008.46 1008.50 1008.38 1008.49 1008.77 1009.27 1010.04 1010.65 1011.17 1011.65 1011.77 1012.04 1012.72 1013.19 1013.42 1013.77 1014.55 1015.00 1015.26 1015.64 1015.85 1015.89 1015.95 1015.87 1015.79 1015.66 1015.97 1016.19 1015.81 1015.52 1015.35
1007.25 1007.48 1007.23 1007.09 1007.52 1007.85 1008.03 1008.43 1008.61 1008.82 1009.00 1008.65 1008.47 1008.74 1008.71 1008.84 1009.10 1009.55 1010.17 1010.78 1011.22 1011.60 1011.84 1012.03 1012.45 1013.03 1013.53 1013.91 1014.08 1014.45 1014.97 1015.36 1015.80 1015.97 1016.16 1016.14 1016.17 1015.99 1015.71 1015.87 1015.92 1015.78 1015.17 1015.15
1008.10 1008.02 1007.99 1007.89 1008.37 1008.47 1008.78 1008.91 1009.14 1009.18 1009.10 1008.87 1008.65 1008.55 1008.64 1008.85 1009.37 1009.92 1010.42 1010.98 1011.54 1012.16 1012.71 1012.87 1013.07 1013.46 1014.04 1014.36 1014.52 1014.81 1015.16 1015.63 1015.92 1016.04 1016.12 1016.07 1016.03 1016.24 1015.89 1016.02 1015.68 1015.64 1015.14 1015.01
1009.60 1009.11 1009.02 1008.79 1008.97 1009.13 1009.13 1009.47 1009.68 1009.32 1009.08 1008.97 1009.00 1009.08 1009.05 1009.14 1009.61 1010.12 1010.74 1011.36 1011.88 1012.58 1013.17 1013.33 1013.54 1013.76 1014.11 1014.46 1014.82 1015.22 1015.53 1016.01 1016.32 1016.22 1016.24 1015.93 1015.98 1016.06 1015.78 1015.90 1015.88 1015.71 1015.15 1014.98
1010.93 1011.11 1010.97 1010.61 1010.82 1010.77 1010.04 1010.16 1010.31 1010.15 1010.08 1009.78 1009.55 1009.69 1009.82 1009.76 1009.99 1010.53 1011.26 1011.81 1012.51 1013.19 1013.64 1013.49 1013.67 1013.96 1014.37 1014.77 1015.29 1015.78 1016.01 1016.34 1016.69 1016.43 1016.03 1015.95 1016.04 1015.94 1015.85 1015.61 1015.75 1015.45 1015.07 1014.63
Wind_Speed
15 10 17 25 24 16 16 14 16 12 12 7 22 19 16 17 7 8 8 9 11 11 10 12 11 7 5 6 7 8 10 10 7 4 4 4 4 4 2 3 6 4 2 3
9 20 28 22 18 18 17 15 22 17 9 10 6 16 14 16 15 15 13 13 10 9 10 10 9 9 8 8 8 8 10 11 8 5 4 4 4 4 4 4 5 4 4 3
20 18 18 16 18 19 21 22 22 20 10 2 5 16 12 10 12 12 17 14 12 14 13 12 11 9 8 9 9 9 9 11 8 7 4 3 4 4 3 2 3 4 5 4
16 26 17 19 23 23 22 22 21 21 11 14 7 23 19 16 22 24 24 19 18 15 13 14 13 10 8 7 7 8 9 9 7 8 7 6 4 4 4 5 4 4 6 4
13 20 22 23 20 23 20 12 19 19 13 6 8 7 16 12 22 20 24 22 18 16 14 17 15 10 8 8 7 7 9 8 7 8 7 6 5 3 3 3 5 3 4 6
14 8 6 20 22 17 11 3 3 2 7 14 20 12 31 16 22 9 9 23 19 13 15 15 14 12 9 7 7 7 8 7 7 7 5 6 6 4 4 3 4 3 3 4
22 21 7 6 11 4 5 9 6 6 7 11 14 14 27 9 23 23 19 16 12 11 16 16 16 14 13 9 8 8 9 8 8 8 6 5 4 4 4 4 3 3 3 2
16 16 19 12 17 11 17 18 9 9 7 7 15 11 17 9 19 9 1 4 10 13 13 14 15 12 11 11 9 9 8 7 8 8 7 5 5 3 3 3 2 2 2 2
9 14 6 15 13 18 7 16 18 4 2 5 6 5 12 8 4 2 0 9 12 12 11 12 12 8 9 9 9 9 8 7 8 7 6 5 5 4 3 3 3 3 2 2
4 11 8 5 7 3 9 9 6 9 8 6 5 4 10 4 9 8 7 10 11 10 11 10 9 8 7 8 8 8 7 6 4 5 5 4 4 4 4 4 2 3 3 3
3 5 2 14 11 15 5 8 5 5 6 6 3 6 3 5 3 10 9 9 13 13 11 10 8 8 7 7 7 6 6 5 4 3 3 3 2 4 4 4 3 4 3 4
6 4 3 3 2 1 4 9 14 6 6 5 2 7 1 1 3 1 10 9 11 12 13 11 10 8 6 6 6 6 4 5 3 2 2 1 2 2 3 3 5 4 5 4
1 3 2 3 1 1 4 7 8 9 3 9 7 5 2 1 4 1 7 7 12 13 13 11 10 8 7 7 6 6 4 4 4 3 2 2 2 3 4 5 5 4 4 4
4 4 6 6 1 1 5 8 8 14 7 6 8 3 5 3 3 0 6 8 10 11 11 11 9 8 6 6 6 5 5 4 3 4 2 2 2 3 4 4 4 4 4 4
3 5 5 4 3 2 2 4 11 13 13 8 4 3 2 2 6 5 6 9 10 9 9 8 9 8 7 6 5 4 4 3 3 3 2 2 2 1 1 0 1 2 3 4
3 3 0 3 1 2 4 7 8 12 16 13 10 6 5 3 4 4 6 10 10 9 7 6 8 8 7 6 5 4 4 3 3 3 2 1 1 2 3 3 4 4 4 4
4 2 3 2 1 4 5 6 10 4 5 4 13 5 3 2 4 5 5 6 9 11 9 8 7 6 6 6 6 6 5 4 3 3 1 2 1 1 2 3 4 4 4 3
4 1 2 1 1 3 3 4 3 2 6 8 6 4 1 3 2 3 2 8 7 8 9 8 8 8 6 4 4 4 5 4 4 3 2 2 1 1 1 1 2 2 3 5
4 2 2 2 3 2 2 6 3 3 4 4 5 6 4 2 2 4 3 2 8 7 7 8 8 7 7 5 4 5 4 4 4 3 2 1 1 2 3 3 3 3 1 1
3 2 2 2 3 0 3 5 2 3 2 2 2 5 6 1 2 2 3 3 9 10 9 10 8 8 7 4 3 5 5 4 4 3 2 0 0 1 3 4 3 2 1 3
1 0 2 2 0 4 3 6 2 2 4 5 3 4 4 2 2 3 7 8 6 7 10 8 6 6 6 5 3 4 4 4 3 2 2 2 2 3 3 3 3 4 3 3
3 4 3 2 2 3 3 4 5 4 3 3 3 3 2 2 4 6 7 7 6 7 7 7 8 6 5 4 3 4 4 4 4 3 3 3 2 2 2 2 3 3 2 3
3 3 3 5 4 3 3 1 2 1 3 4 3 1 3 3 3 4 5 5 6 6 5 4 7 8 5 4 4 5 3 4 3 3 3 3 3 3 2 2 3 3 2 1
2 3 3 2 4 3 3 1 2 2 3 5 5 1 1 2 5 5 5 6 5 5 3 3 5 5 4 3 4 4 4 4 3 1 2 2 1 2 3 3 2 1 2 1
2 5 5 1 4 2 5 8 8 8 4 5 4 5 2 2 4 5 5 5 5 5 4 4 4 4 5 4 4 3 4 4 1 2 3 2 1 2 1 3 2 2 2 3
5 4 4 2 6 4 4 8 11 9 9 9 5 3 3 3 4 5 5 4 4 5 3 3 4 5 4 3 2 2 3 3 1 2 2 0 1 2 1 1 3 8 9 10
Wind_Direction
197 192 206 215 220 233 256 260 247 229 238 190 222 228 224 247 222 239 236 228 208 199 181 165 154 164 178 182 181 200 158 156 148 143 147 149 158 164 153 152 130 131 152 147
191 213 221 218 219 225 241 255 261 277 288 202 247 248 239 240 243 204 211 222 215 191 155 151 149 165 190 192 195 191 162 156 152 147 158 151 164 176 164 153 140 172 158 170
208 215 226 217 225 232 224 228 242 252 272 285 349 275 246 245 257 249 214 214 206 195 180 165 165 175 184 184 187 171 151 150 151 158 151 110 75 58 76 134 161 179 171 162
215 233 224 208 220 221 237 224 237 242 248 249 174 269 256 248 229 226 229 209 211 197 183 163 164 173 176 176 170 149 144 146 155 151 130 140 148 152 193 177 176 164 157 171
214 219 220 225 221 218 239 220 226 245 240 242 217 251 257 204 239 233 222 225 208 199 179 170 164 156 163 151 147 134 133 146 149 139 151 167 180 166 121 119 120 141 168 173
249 265 266 222 233 236 234 200 29 293 228 229 220 205 268 233 242 247 249 207 207 179 158 156 149 141 136 138 139 134 134 139 137 144 165 163 166 165 136 148 156 183 188 178
231 234 219 259 233 35 124 147 204 215 209 235 203 208 243 225 233 243 249 206 186 154 153 149 149 147 145 151 149 144 144 152 149 156 167 166 157 156 165 167 167 175 176 167
221 242 198 188 218 189 190 192 206 227 207 226 159 206 238 229 231 248 266 175 143 152 153 151 149 154 152 150 150 146 152 156 156 159 167 162 161 159 176 183 163 159 150 161
214 227 130 188 190 174 182 217 222 278 189 251 180 269 303 209 190 140 134 153 157 151 151 142 140 146 144 145 149 147 151 156 158 157 161 166 162 171 176 171 128 130 104 121
297 268 201 174 196 304 206 155 190 209 229 239 197 262 231 245 207 154 166 166 157 142 134 131 129 126 123 123 117 110 110 112 105 130 144 156 167 158 128 102 119 111 128 122
353 237 339 133 197 185 161 191 205 230 211 238 193 232 227 244 221 181 166 173 160 146 137 127 116 96 93 87 84 88 87 98 88 75 66 116 150 134 132 145 185 187 165 182
199 302 252 201 51 5 322 234 195 199 175 231 39 269 294 327 314 231 169 165 151 133 128 122 110 110 106 111 108 117 105 107 116 108 100 161 153 137 148 183 203 185 190 198
198 255 214 171 58 151 230 208 237 230 80 204 203 254 180 12 348 4 156 131 127 127 120 120 125 138 142 135 130 121 122 126 118 105 140 216 207 175 198 211 199 179 193 202
300 222 226 276 46 121 189 209 210 226 225 196 207 223 334 305 173 268 111 114 126 136 137 135 139 141 142 133 131 129 120 124 149 130 149 205 213 209 209 205 190 184 192 193
222 260 200 240 217 267 303 236 218 224 245 214 259 228 83 214 195 181 140 129 133 141 145 152 146 141 137 129 122 115 119 127 123 142 153 213 204 234 203 83 189 195 204 207
210 269 240 262 172 264 267 236 245 229 237 263 265 271 182 219 63 96 166 152 152 153 146 147 140 138 138 140 142 144 146 161 138 138 173 167 148 212 220 216 216 210 219 217
263 227 202 219 290 221 280 239 222 226 229 251 237 271 153 100 143 170 178 185 166 158 152 150 142 137 137 140 151 159 160 155 138 133 127 121 124 248 232 216 210 210 211 222
287 262 253 138 269 235 260 234 226 268 54 4 340 320 143 118 69 65 164 167 162 155 148 139 133 116 128 130 118 134 147 143 115 82 77 78 55 331 315 318 292 261 240 252
234 241 248 217 200 208 83 348 356 39 42 8 309 330 317 32 198 186 185 331 155 141 127 118 110 124 121 124 141 125 98 100 105 108 98 76 342 318 326 327 288 267 262 251
230 250 261 112 257 53 307 315 258 7 73 339 301 314 332 197 209 100 85 42 84 99 112 119 119 127 126 139 140 131 133 134 118 93 68 42 340 0 302 287 292 283 300 274
293 105 312 252 211 93 281 302 351 7 283 333 337 301 309 285 349 81 81 71 74 105 115 121 126 119 117 110 91 107 116 119 114 88 41 22 15 348 292 319 341 313 310 323
358 324 31 289 16 65 350 316 66 237 288 239 309 337 353 73 100 82 83 86 93 110 120 125 116 117 118 111 132 127 111 77 54 29 5 13 340 310 329 14 297 273 280 296
52 13 355 11 57 297 336 71 279 245 260 340 346 239 110 98 97 115 116 122 133 131 126 121 126 127 118 113 104 118 110 90 77 35 338 316 314 312 313 288 270 300 269 262
73 9 349 219 22 27 20 54 343 265 292 349 3 42 237 91 134 127 135 131 123 111 112 96 116 118 122 116 95 82 104 85 74 3 301 289 293 308 304 290 275 254 310 337
356 329 325 58 36 328 83 44 10 347 335 341 15 359 322 99 158 134 125 126 131 137 145 147 143 137 132 122 105 101 103 97 8 290 278 287 256 254 284 280 267 272 269 212
354 360 6 349 37 317 317 21 13 359 3 346 349 357 22 9 147 120 132 130 134 148 155 122 100 103 105 102 96 134 128 128 165 301 289 36 282 310 291 262 295 303 275 251